owner,sensor,date,latitude,longitude,sea_surface_height_above_sea_level,qcFlag 
TCOON,ioos:station:TCOON:009:1,2015-07-01T00:12:00Z,27.8398,-97.0727,1.376,1111122 
TCOON,ioos:station:TCOON:009:1,2015-07-01T01:12:00Z,27.8398,-97.0727,1.209,1111122 
TCOON,ioos:station:TCOON:009:1,2015-07-01T02:12:00Z,27.8398,-97.0727,1.278,1111122 
TCOON,ioos:station:TCOON:009:1,2015-07-01T03:12:00Z,27.8398,-97.0727,1.263,1111122 
TCOON,ioos:station:TCOON:009:1,2015-07-01T04:12:00Z,27.8398,-97.0727,1.286,1111122 
TCOON,ioos:station:TCOON:009:1,2015-07-01T05:12:00Z,27.8398,-97.0727,1.453,1111122 
TCOON,ioos:station:TCOON:009:1,2015-07-01T06:18:00Z,27.8398,-97.0727,1.49,1111122 
TCOON,ioos:station:TCOON:009:1,2015-07-01T07:30:00Z,27.8398,-97.0727,1.59,1111122 
TCOON,ioos:station:TCOON:009:1,2015-07-01T08:18:00Z,27.8398,-97.0727,1.589,1111122 
TCOON,ioos:station:TCOON:009:1,2015-07-01T09:12:00Z,27.8398,-97.0727,1.574,1111122 
TCOON,ioos:station:TCOON:009:1,2015-07-01T10:12:00Z,27.8398,-97.0727,1.622,1111122 
TCOON,ioos:station:TCOON:009:1,2015-07-01T11:12:00Z,27.8398,-97.0727,1.592,1111122 
TCOON,ioos:station:TCOON:009:1,2015-07-01T12:12:00Z,27.8398,-97.0727,1.675,1111122 
TCOON,ioos:station:TCOON:009:1,2015-07-01T13:12:00Z,27.8398,-97.0727,1.638,1111122 
TCOON,ioos:station:TCOON:009:1,2015-07-01T14:12:00Z,27.8398,-97.0727,1.673,1111122 
TCOON,ioos:station:TCOON:009:1,2015-07-01T15:12:00Z,27.8398,-97.0727,1.659,1111122 
TCOON,ioos:station:TCOON:009:1,2015-07-01T16:12:00Z,27.8398,-97.0727,1.769,1111122 
TCOON,ioos:station:TCOON:009:1,2015-07-01T17:12:00Z,27.8398,-97.0727,1.648,1111122 
TCOON,ioos:station:TCOON:009:1,2015-07-01T18:18:00Z,27.8398,-97.0727,1.54,1111122 
TCOON,ioos:station:TCOON:009:1,2015-07-01T19:18:00Z,27.8398,-97.0727,1.648,1111122 
TCOON,ioos:station:TCOON:009:1,2015-07-01T20:18:00Z,27.8398,-97.0727,1.548,1111122 
TCOON,ioos:station:TCOON:009:1,2015-07-01T21:12:00Z,27.8398,-97.0727,1.475,1111122 
TCOON,ioos:station:TCOON:009:1,2015-07-01T22:24:00Z,27.8398,-97.0727,1.464,1111122 
TCOON,ioos:station:TCOON:009:1,2015-07-01T23:12:00Z,27.8398,-97.0727,1.424,1111122 
TCOON,ioos:station:TCOON:009:1,2015-07-02T00:12:00Z,27.8398,-97.0727,1.348,1111122 
TCOON,ioos:station:TCOON:009:1,2015-07-02T01:12:00Z,27.8398,-97.0727,1.312,1111122 
TCOON,ioos:station:TCOON:009:1,2015-07-02T02:12:00Z,27.8398,-97.0727,1.267,1111122 
TCOON,ioos:station:TCOON:009:1,2015-07-02T03:12:00Z,27.8398,-97.0727,1.319,1111122 
TCOON,ioos:station:TCOON:009:1,2015-07-02T04:18:00Z,27.8398,-97.0727,1.399,1111122 
TCOON,ioos:station:TCOON:009:1,2015-07-02T05:24:00Z,27.8398,-97.0727,1.462,1111122 
TCOON,ioos:station:TCOON:009:1,2015-07-02T06:24:00Z,27.8398,-97.0727,1.501,1111122 
TCOON,ioos:station:TCOON:009:1,2015-07-02T07:18:00Z,27.8398,-97.0727,1.549,1111122 
TCOON,ioos:station:TCOON:009:1,2015-07-02T08:18:00Z,27.8398,-97.0727,1.617,1111122 
TCOON,ioos:station:TCOON:009:1,2015-07-02T09:18:00Z,27.8398,-97.0727,1.68,1111122 
TCOON,ioos:station:TCOON:009:1,2015-07-02T10:12:00Z,27.8398,-97.0727,1.662,1111122 
TCOON,ioos:station:TCOON:009:1,2015-07-02T11:18:00Z,27.8398,-97.0727,1.687,1111122 
TCOON,ioos:station:TCOON:009:1,2015-07-02T12:18:00Z,27.8398,-97.0727,1.641,1111122 
TCOON,ioos:station:TCOON:009:1,2015-07-02T13:12:00Z,27.8398,-97.0727,1.733,1111122 
TCOON,ioos:station:TCOON:009:1,2015-07-02T14:12:00Z,27.8398,-97.0727,1.73,1111122 
TCOON,ioos:station:TCOON:009:1,2015-07-02T16:12:00Z,27.8398,-97.0727,1.716,1111122 
TCOON,ioos:station:TCOON:009:1,2015-07-02T17:12:00Z,27.8398,-97.0727,1.742,1111122 
TCOON,ioos:station:TCOON:009:1,2015-07-02T18:12:00Z,27.8398,-97.0727,1.72,1111122 
TCOON,ioos:station:TCOON:009:1,2015-07-02T19:18:00Z,27.8398,-97.0727,1.7,1111122 
TCOON,ioos:station:TCOON:009:1,2015-07-02T20:18:00Z,27.8398,-97.0727,1.673,1111122 
TCOON,ioos:station:TCOON:009:1,2015-07-02T21:12:00Z,27.8398,-97.0727,1.65,1111122 
TCOON,ioos:station:TCOON:009:1,2015-07-03T13:12:00Z,27.8398,-97.0727,1.691,1111122 
TCOON,ioos:station:TCOON:009:1,2015-07-03T14:12:00Z,27.8398,-97.0727,1.706,1111122 
TCOON,ioos:station:TCOON:009:1,2015-07-03T15:12:00Z,27.8398,-97.0727,1.746,1111122 
TCOON,ioos:station:TCOON:009:1,2015-07-03T16:18:00Z,27.8398,-97.0727,1.703,1111122 
TCOON,ioos:station:TCOON:009:1,2015-07-03T17:12:00Z,27.8398,-97.0727,1.724,1111122 
TCOON,ioos:station:TCOON:009:1,2015-07-03T18:18:00Z,27.8398,-97.0727,1.725,1111122 
TCOON,ioos:station:TCOON:009:1,2015-07-03T19:18:00Z,27.8398,-97.0727,1.725,1111122 
TCOON,ioos:station:TCOON:009:1,2015-07-03T20:12:00Z,27.8398,-97.0727,1.736,1111122 
TCOON,ioos:station:TCOON:009:1,2015-07-03T21:12:00Z,27.8398,-97.0727,1.725,1111122 
TCOON,ioos:station:TCOON:009:1,2015-07-03T22:18:00Z,27.8398,-97.0727,1.707,1111122 
TCOON,ioos:station:TCOON:009:1,2015-07-03T23:18:00Z,27.8398,-97.0727,1.606,1111122 
TCOON,ioos:station:TCOON:009:1,2015-07-04T00:12:00Z,27.8398,-97.0727,1.519,1111122 
TCOON,ioos:station:TCOON:009:1,2015-07-04T01:12:00Z,27.8398,-97.0727,1.492,1111122 
TCOON,ioos:station:TCOON:009:1,2015-07-04T02:18:00Z,27.8398,-97.0727,1.421,1111122 
TCOON,ioos:station:TCOON:009:1,2015-07-04T03:12:00Z,27.8398,-97.0727,1.404,1111122 
TCOON,ioos:station:TCOON:009:1,2015-07-04T04:12:00Z,27.8398,-97.0727,1.346,1111122 
TCOON,ioos:station:TCOON:009:1,2015-07-04T05:12:00Z,27.8398,-97.0727,1.402,1111122 
TCOON,ioos:station:TCOON:009:1,2015-07-04T06:18:00Z,27.8398,-97.0727,1.435,1111122 
TCOON,ioos:station:TCOON:009:1,2015-07-04T07:30:00Z,27.8398,-97.0727,1.545,1111122 
TCOON,ioos:station:TCOON:009:1,2015-07-04T08:12:00Z,27.8398,-97.0727,1.587,1111122 
TCOON,ioos:station:TCOON:009:1,2015-07-04T09:12:00Z,27.8398,-97.0727,1.686,1111122 
TCOON,ioos:station:TCOON:009:1,2015-07-04T10:12:00Z,27.8398,-97.0727,1.655,1111122 
TCOON,ioos:station:TCOON:009:1,2015-07-04T11:12:00Z,27.8398,-97.0727,1.688,1111122 
TCOON,ioos:station:TCOON:009:1,2015-07-04T12:12:00Z,27.8398,-97.0727,1.71,1111122 
TCOON,ioos:station:TCOON:009:1,2015-07-04T13:12:00Z,27.8398,-97.0727,1.721,1111122 
TCOON,ioos:station:TCOON:009:1,2015-07-04T14:12:00Z,27.8398,-97.0727,1.695,1111122 
TCOON,ioos:station:TCOON:009:1,2015-07-04T15:12:00Z,27.8398,-97.0727,1.714,1111122 
TCOON,ioos:station:TCOON:009:1,2015-07-04T16:18:00Z,27.8398,-97.0727,1.707,1111122 
TCOON,ioos:station:TCOON:009:1,2015-07-04T17:18:00Z,27.8398,-97.0727,1.68,1111122 
TCOON,ioos:station:TCOON:009:1,2015-07-04T18:12:00Z,27.8398,-97.0727,1.673,1111122 
TCOON,ioos:station:TCOON:009:1,2015-07-04T19:12:00Z,27.8398,-97.0727,1.728,1111122 
TCOON,ioos:station:TCOON:009:1,2015-07-04T20:18:00Z,27.8398,-97.0727,1.617,1111122 
TCOON,ioos:station:TCOON:009:1,2015-07-04T21:18:00Z,27.8398,-97.0727,1.641,1111122 
TCOON,ioos:station:TCOON:009:1,2015-07-04T22:12:00Z,27.8398,-97.0727,1.661,1111122 
TCOON,ioos:station:TCOON:009:1,2015-07-04T23:18:00Z,27.8398,-97.0727,1.626,1111122 
TCOON,ioos:station:TCOON:009:1,2015-07-05T00:18:00Z,27.8398,-97.0727,1.588,1111122 
TCOON,ioos:station:TCOON:009:1,2015-07-05T01:12:00Z,27.8398,-97.0727,1.504,1111122 
TCOON,ioos:station:TCOON:009:1,2015-07-05T02:12:00Z,27.8398,-97.0727,1.443,1111122 
TCOON,ioos:station:TCOON:009:1,2015-07-05T03:12:00Z,27.8398,-97.0727,1.426,1111122 
TCOON,ioos:station:TCOON:009:1,2015-07-05T04:18:00Z,27.8398,-97.0727,1.401,1111122 
TCOON,ioos:station:TCOON:009:1,2015-07-05T05:12:00Z,27.8398,-97.0727,1.384,1111122 
TCOON,ioos:station:TCOON:009:1,2015-07-05T06:18:00Z,27.8398,-97.0727,1.414,1111122 
TCOON,ioos:station:TCOON:009:1,2015-07-05T07:18:00Z,27.8398,-97.0727,1.459,1111122 
TCOON,ioos:station:TCOON:009:1,2015-07-05T08:18:00Z,27.8398,-97.0727,1.543,1111122 
TCOON,ioos:station:TCOON:009:1,2015-07-05T09:12:00Z,27.8398,-97.0727,1.593,1111122 
TCOON,ioos:station:TCOON:009:1,2015-07-05T10:12:00Z,27.8398,-97.0727,1.656,1111122 
TCOON,ioos:station:TCOON:009:1,2015-07-05T11:12:00Z,27.8398,-97.0727,1.665,1111122 
TCOON,ioos:station:TCOON:009:1,2015-07-05T12:12:00Z,27.8398,-97.0727,1.698,1111122 
TCOON,ioos:station:TCOON:009:1,2015-07-05T13:12:00Z,27.8398,-97.0727,1.722,1111122 
TCOON,ioos:station:TCOON:009:1,2015-07-05T14:12:00Z,27.8398,-97.0727,1.696,1111122 
TCOON,ioos:station:TCOON:009:1,2015-07-05T15:12:00Z,27.8398,-97.0727,1.678,1111122 
TCOON,ioos:station:TCOON:009:1,2015-07-05T16:12:00Z,27.8398,-97.0727,1.678,1111122 
TCOON,ioos:station:TCOON:009:1,2015-07-05T17:12:00Z,27.8398,-97.0727,1.688,1111122 
TCOON,ioos:station:TCOON:009:1,2015-07-05T18:12:00Z,27.8398,-97.0727,1.676,1111122 
TCOON,ioos:station:TCOON:009:1,2015-07-05T19:12:00Z,27.8398,-97.0727,1.671,1111122 
TCOON,ioos:station:TCOON:009:1,2015-07-05T20:12:00Z,27.8398,-97.0727,1.685,1111122 
TCOON,ioos:station:TCOON:009:1,2015-07-05T21:12:00Z,27.8398,-97.0727,1.661,1111122 
TCOON,ioos:station:TCOON:009:1,2015-07-05T22:12:00Z,27.8398,-97.0727,1.694,1111122 
TCOON,ioos:station:TCOON:009:1,2015-07-05T23:18:00Z,27.8398,-97.0727,1.645,1111122 
TCOON,ioos:station:TCOON:009:1,2015-07-06T00:12:00Z,27.8398,-97.0727,1.632,1111122 
TCOON,ioos:station:TCOON:009:1,2015-07-06T01:12:00Z,27.8398,-97.0727,1.573,1111122 
TCOON,ioos:station:TCOON:009:1,2015-07-06T02:12:00Z,27.8398,-97.0727,1.518,1111122 
TCOON,ioos:station:TCOON:009:1,2015-07-06T03:12:00Z,27.8398,-97.0727,1.48,1111122 
TCOON,ioos:station:TCOON:009:1,2015-07-06T04:12:00Z,27.8398,-97.0727,1.448,1111122 
TCOON,ioos:station:TCOON:009:1,2015-07-06T05:12:00Z,27.8398,-97.0727,1.369,1111122 
TCOON,ioos:station:TCOON:009:1,2015-07-06T06:18:00Z,27.8398,-97.0727,1.404,1111122 
TCOON,ioos:station:TCOON:009:1,2015-07-06T07:30:00Z,27.8398,-97.0727,1.459,1111122 
TCOON,ioos:station:TCOON:009:1,2015-07-06T08:18:00Z,27.8398,-97.0727,1.544,1111122 
TCOON,ioos:station:TCOON:009:1,2015-07-06T09:12:00Z,27.8398,-97.0727,1.58,1111122 
TCOON,ioos:station:TCOON:009:1,2015-07-06T10:12:00Z,27.8398,-97.0727,1.594,1111122 
TCOON,ioos:station:TCOON:009:1,2015-07-06T11:12:00Z,27.8398,-97.0727,1.642,1111122 
TCOON,ioos:station:TCOON:009:1,2015-07-06T12:12:00Z,27.8398,-97.0727,1.703,1111122 
TCOON,ioos:station:TCOON:009:1,2015-07-06T13:12:00Z,27.8398,-97.0727,1.673,1111122 
TCOON,ioos:station:TCOON:009:1,2015-07-06T14:12:00Z,27.8398,-97.0727,1.651,1111122 
TCOON,ioos:station:TCOON:009:1,2015-07-06T15:12:00Z,27.8398,-97.0727,1.667,1111122 
TCOON,ioos:station:TCOON:009:1,2015-07-06T16:18:00Z,27.8398,-97.0727,1.647,1111122 
TCOON,ioos:station:TCOON:009:1,2015-07-06T17:12:00Z,27.8398,-97.0727,1.627,1111122 
TCOON,ioos:station:TCOON:009:1,2015-07-06T18:12:00Z,27.8398,-97.0727,1.641,1111122 
TCOON,ioos:station:TCOON:009:1,2015-07-06T19:12:00Z,27.8398,-97.0727,1.665,1111122 
TCOON,ioos:station:TCOON:009:1,2015-07-06T20:12:00Z,27.8398,-97.0727,1.642,1111122 
TCOON,ioos:station:TCOON:009:1,2015-07-06T21:12:00Z,27.8398,-97.0727,1.651,1111122 
TCOON,ioos:station:TCOON:009:1,2015-07-06T22:30:00Z,27.8398,-97.0727,1.694,1111122 
TCOON,ioos:station:TCOON:009:1,2015-07-06T23:12:00Z,27.8398,-97.0727,1.716,1111122 
TCOON,ioos:station:TCOON:009:1,2015-07-07T00:12:00Z,27.8398,-97.0727,1.686,1111122 
TCOON,ioos:station:TCOON:009:1,2015-07-07T01:12:00Z,27.8398,-97.0727,1.685,1111122 
TCOON,ioos:station:TCOON:009:1,2015-07-07T02:12:00Z,27.8398,-97.0727,1.665,1111122 
TCOON,ioos:station:TCOON:009:1,2015-07-07T03:12:00Z,27.8398,-97.0727,1.656,1111122 
TCOON,ioos:station:TCOON:009:1,2015-07-07T04:12:00Z,27.8398,-97.0727,1.574,1111122 
TCOON,ioos:station:TCOON:009:1,2015-07-07T05:12:00Z,27.8398,-97.0727,1.555,1111122 
TCOON,ioos:station:TCOON:009:1,2015-07-07T06:24:00Z,27.8398,-97.0727,1.53,1111122 
TCOON,ioos:station:TCOON:009:1,2015-07-07T07:18:00Z,27.8398,-97.0727,1.56,1111122 
TCOON,ioos:station:TCOON:009:1,2015-07-07T08:12:00Z,27.8398,-97.0727,1.558,1111122 
TCOON,ioos:station:TCOON:009:1,2015-07-07T09:18:00Z,27.8398,-97.0727,1.617,1111122 
TCOON,ioos:station:TCOON:009:1,2015-07-07T14:12:00Z,27.8398,-97.0727,1.708,1111122 
TCOON,ioos:station:TCOON:009:1,2015-07-07T15:12:00Z,27.8398,-97.0727,1.697,1111122 
TCOON,ioos:station:TCOON:009:1,2015-07-07T16:12:00Z,27.8398,-97.0727,1.694,1111122 
TCOON,ioos:station:TCOON:009:1,2015-07-07T17:12:00Z,27.8398,-97.0727,1.676,1111122 
TCOON,ioos:station:TCOON:009:1,2015-07-07T18:12:00Z,27.8398,-97.0727,1.721,1111122 
TCOON,ioos:station:TCOON:009:1,2015-07-07T19:12:00Z,27.8398,-97.0727,1.63,1111122 
TCOON,ioos:station:TCOON:009:1,2015-07-07T20:18:00Z,27.8398,-97.0727,1.593,1111122 
TCOON,ioos:station:TCOON:009:1,2015-07-07T21:12:00Z,27.8398,-97.0727,1.508,1111122 
TCOON,ioos:station:TCOON:009:1,2015-07-07T22:18:00Z,27.8398,-97.0727,1.635,1111122 
TCOON,ioos:station:TCOON:009:1,2015-07-07T23:12:00Z,27.8398,-97.0727,1.652,1111122 
TCOON,ioos:station:TCOON:009:1,2015-07-08T00:12:00Z,27.8398,-97.0727,1.684,1111122 
TCOON,ioos:station:TCOON:009:1,2015-07-08T01:12:00Z,27.8398,-97.0727,1.668,1111122 
TCOON,ioos:station:TCOON:009:1,2015-07-08T02:12:00Z,27.8398,-97.0727,1.686,1111122 
TCOON,ioos:station:TCOON:009:1,2015-07-08T03:12:00Z,27.8398,-97.0727,1.678,1111122 
TCOON,ioos:station:TCOON:009:1,2015-07-08T04:18:00Z,27.8398,-97.0727,1.67,1111122 
TCOON,ioos:station:TCOON:009:1,2015-07-08T05:12:00Z,27.8398,-97.0727,1.647,1111122 
TCOON,ioos:station:TCOON:009:1,2015-07-08T06:18:00Z,27.8398,-97.0727,1.632,1111122 
TCOON,ioos:station:TCOON:009:1,2015-07-08T07:18:00Z,27.8398,-97.0727,1.617,1111122 
TCOON,ioos:station:TCOON:009:1,2015-07-08T08:12:00Z,27.8398,-97.0727,1.634,1111122 
TCOON,ioos:station:TCOON:009:1,2015-07-08T09:12:00Z,27.8398,-97.0727,1.636,1111122 
TCOON,ioos:station:TCOON:009:1,2015-07-08T10:12:00Z,27.8398,-97.0727,1.634,1111122 
TCOON,ioos:station:TCOON:009:1,2015-07-08T11:12:00Z,27.8398,-97.0727,1.674,1111122 
TCOON,ioos:station:TCOON:009:1,2015-07-08T12:12:00Z,27.8398,-97.0727,1.697,1111122 
TCOON,ioos:station:TCOON:009:1,2015-07-08T13:18:00Z,27.8398,-97.0727,1.722,1111122 
TCOON,ioos:station:TCOON:009:1,2015-07-08T14:12:00Z,27.8398,-97.0727,1.718,1111122 
TCOON,ioos:station:TCOON:009:1,2015-07-08T15:18:00Z,27.8398,-97.0727,1.715,1111122 
TCOON,ioos:station:TCOON:009:1,2015-07-08T16:18:00Z,27.8398,-97.0727,1.713,1111122 
TCOON,ioos:station:TCOON:009:1,2015-07-08T17:18:00Z,27.8398,-97.0727,1.655,1111122 
TCOON,ioos:station:TCOON:009:1,2015-07-08T18:18:00Z,27.8398,-97.0727,1.617,1111122 
TCOON,ioos:station:TCOON:009:1,2015-07-08T19:18:00Z,27.8398,-97.0727,1.59,1111122 
TCOON,ioos:station:TCOON:009:1,2015-07-08T20:18:00Z,27.8398,-97.0727,1.565,1111122 
TCOON,ioos:station:TCOON:009:1,2015-07-08T21:12:00Z,27.8398,-97.0727,1.489,1111122 
TCOON,ioos:station:TCOON:009:1,2015-07-08T22:18:00Z,27.8398,-97.0727,1.566,1111122 
TCOON,ioos:station:TCOON:009:1,2015-07-08T23:18:00Z,27.8398,-97.0727,1.598,1111122 
TCOON,ioos:station:TCOON:009:1,2015-07-09T00:12:00Z,27.8398,-97.0727,1.603,1111122 
TCOON,ioos:station:TCOON:009:1,2015-07-09T01:12:00Z,27.8398,-97.0727,1.649,1111122 
TCOON,ioos:station:TCOON:009:1,2015-07-09T02:12:00Z,27.8398,-97.0727,1.67,1111122 
TCOON,ioos:station:TCOON:009:1,2015-07-09T03:12:00Z,27.8398,-97.0727,1.695,1111122 
TCOON,ioos:station:TCOON:009:1,2015-07-09T04:18:00Z,27.8398,-97.0727,1.669,1111122 
TCOON,ioos:station:TCOON:009:1,2015-07-09T05:12:00Z,27.8398,-97.0727,1.659,1111122 
TCOON,ioos:station:TCOON:009:1,2015-07-09T06:18:00Z,27.8398,-97.0727,1.65,1111122 
TCOON,ioos:station:TCOON:009:1,2015-07-09T07:24:00Z,27.8398,-97.0727,1.678,1111122 
TCOON,ioos:station:TCOON:009:1,2015-07-09T08:12:00Z,27.8398,-97.0727,1.683,1111122 
TCOON,ioos:station:TCOON:009:1,2015-07-09T09:12:00Z,27.8398,-97.0727,1.655,1111122 
TCOON,ioos:station:TCOON:009:1,2015-07-09T10:12:00Z,27.8398,-97.0727,1.649,1111122 
TCOON,ioos:station:TCOON:009:1,2015-07-09T11:12:00Z,27.8398,-97.0727,1.678,1111122 
TCOON,ioos:station:TCOON:009:1,2015-07-09T12:12:00Z,27.8398,-97.0727,1.683,1111122 
TCOON,ioos:station:TCOON:009:1,2015-07-09T13:42:00Z,27.8398,-97.0727,1.706,1111122 
TCOON,ioos:station:TCOON:009:1,2015-07-09T14:48:00Z,27.8398,-97.0727,1.725,1111122 
TCOON,ioos:station:TCOON:009:1,2015-07-09T15:12:00Z,27.8398,-97.0727,1.697,1111122 
TCOON,ioos:station:TCOON:009:1,2015-07-09T16:18:00Z,27.8398,-97.0727,1.683,1111122 
TCOON,ioos:station:TCOON:009:1,2015-07-09T17:18:00Z,27.8398,-97.0727,1.597,1111122 
TCOON,ioos:station:TCOON:009:1,2015-07-09T18:30:00Z,27.8398,-97.0727,1.591,1111122 
TCOON,ioos:station:TCOON:009:1,2015-07-09T19:24:00Z,27.8398,-97.0727,1.56,1111122 
TCOON,ioos:station:TCOON:009:1,2015-07-09T20:24:00Z,27.8398,-97.0727,1.527,1111122 
TCOON,ioos:station:TCOON:009:1,2015-07-09T21:18:00Z,27.8398,-97.0727,1.557,1111122 
TCOON,ioos:station:TCOON:009:1,2015-07-09T22:18:00Z,27.8398,-97.0727,1.507,1111122 
TCOON,ioos:station:TCOON:009:1,2015-07-09T23:12:00Z,27.8398,-97.0727,1.504,1111122 
TCOON,ioos:station:TCOON:009:1,2015-07-10T00:12:00Z,27.8398,-97.0727,1.582,1111122 
TCOON,ioos:station:TCOON:009:1,2015-07-10T01:18:00Z,27.8398,-97.0727,1.6,1111122 
TCOON,ioos:station:TCOON:009:1,2015-07-10T02:18:00Z,27.8398,-97.0727,1.64,1111122 
TCOON,ioos:station:TCOON:009:1,2015-07-10T03:12:00Z,27.8398,-97.0727,1.664,1111122 
TCOON,ioos:station:TCOON:009:1,2015-07-10T04:12:00Z,27.8398,-97.0727,1.672,1111122 
TCOON,ioos:station:TCOON:009:1,2015-07-10T05:12:00Z,27.8398,-97.0727,1.7,1111122 
TCOON,ioos:station:TCOON:009:1,2015-07-10T06:18:00Z,27.8398,-97.0727,1.711,1111122 
TCOON,ioos:station:TCOON:009:1,2015-07-10T07:18:00Z,27.8398,-97.0727,1.701,1111122 
TCOON,ioos:station:TCOON:009:1,2015-07-10T08:12:00Z,27.8398,-97.0727,1.717,1111122 
TCOON,ioos:station:TCOON:009:1,2015-07-10T09:12:00Z,27.8398,-97.0727,1.713,1111122 
TCOON,ioos:station:TCOON:009:1,2015-07-10T10:12:00Z,27.8398,-97.0727,1.723,1111122 
TCOON,ioos:station:TCOON:009:1,2015-07-10T11:12:00Z,27.8398,-97.0727,1.722,1111122 
TCOON,ioos:station:TCOON:009:1,2015-07-10T12:12:00Z,27.8398,-97.0727,1.714,1111122 
TCOON,ioos:station:TCOON:009:1,2015-07-10T13:12:00Z,27.8398,-97.0727,1.729,1111122 
TCOON,ioos:station:TCOON:009:1,2015-07-10T14:12:00Z,27.8398,-97.0727,1.713,1111122 
TCOON,ioos:station:TCOON:009:1,2015-07-10T15:12:00Z,27.8398,-97.0727,1.745,1111122 
TCOON,ioos:station:TCOON:009:1,2015-07-10T16:12:00Z,27.8398,-97.0727,1.728,1111122 
TCOON,ioos:station:TCOON:009:1,2015-07-10T17:12:00Z,27.8398,-97.0727,1.702,1111122 
TCOON,ioos:station:TCOON:009:1,2015-07-10T18:12:00Z,27.8398,-97.0727,1.616,1111122 
TCOON,ioos:station:TCOON:009:1,2015-07-10T19:12:00Z,27.8398,-97.0727,1.563,1111122 
TCOON,ioos:station:TCOON:009:1,2015-07-10T20:18:00Z,27.8398,-97.0727,1.515,1111122 
TCOON,ioos:station:TCOON:009:1,2015-07-10T21:12:00Z,27.8398,-97.0727,1.509,1111122 
TCOON,ioos:station:TCOON:009:1,2015-07-10T22:12:00Z,27.8398,-97.0727,1.45,1111122 
TCOON,ioos:station:TCOON:009:1,2015-07-10T23:12:00Z,27.8398,-97.0727,1.489,1111122 
TCOON,ioos:station:TCOON:009:1,2015-07-11T00:12:00Z,27.8398,-97.0727,1.486,1111122 
TCOON,ioos:station:TCOON:009:1,2015-07-11T01:18:00Z,27.8398,-97.0727,1.524,1111122 
TCOON,ioos:station:TCOON:009:1,2015-07-11T02:30:00Z,27.8398,-97.0727,1.604,1111122 
TCOON,ioos:station:TCOON:009:1,2015-07-11T03:18:00Z,27.8398,-97.0727,1.667,1111122 
TCOON,ioos:station:TCOON:009:1,2015-07-11T04:12:00Z,27.8398,-97.0727,1.692,1111122 
TCOON,ioos:station:TCOON:009:1,2015-07-11T05:12:00Z,27.8398,-97.0727,1.68,1111122 
TCOON,ioos:station:TCOON:009:1,2015-07-11T06:18:00Z,27.8398,-97.0727,1.712,1111122 
TCOON,ioos:station:TCOON:009:1,2015-07-11T07:36:00Z,27.8398,-97.0727,1.708,1111122 
TCOON,ioos:station:TCOON:009:1,2015-07-11T08:12:00Z,27.8398,-97.0727,1.74,1111122 
TCOON,ioos:station:TCOON:009:1,2015-07-11T09:12:00Z,27.8398,-97.0727,1.743,1111122 
TCOON,ioos:station:TCOON:009:1,2015-07-11T10:12:00Z,27.8398,-97.0727,1.715,1111122 
TCOON,ioos:station:TCOON:009:1,2015-07-11T11:12:00Z,27.8398,-97.0727,1.731,1111122 
TCOON,ioos:station:TCOON:009:1,2015-07-11T12:12:00Z,27.8398,-97.0727,1.736,1111122 
TCOON,ioos:station:TCOON:009:1,2015-07-11T13:12:00Z,27.8398,-97.0727,1.718,1111122 
TCOON,ioos:station:TCOON:009:1,2015-07-11T14:12:00Z,27.8398,-97.0727,1.699,1111122 
TCOON,ioos:station:TCOON:009:1,2015-07-11T15:12:00Z,27.8398,-97.0727,1.742,1111122 
TCOON,ioos:station:TCOON:009:1,2015-07-11T16:12:00Z,27.8398,-97.0727,1.628,1111122 
TCOON,ioos:station:TCOON:009:1,2015-07-11T17:12:00Z,27.8398,-97.0727,1.68,1111122 
TCOON,ioos:station:TCOON:009:1,2015-07-11T18:12:00Z,27.8398,-97.0727,1.663,1111122 
TCOON,ioos:station:TCOON:009:1,2015-07-11T19:12:00Z,27.8398,-97.0727,1.611,1111122 
TCOON,ioos:station:TCOON:009:1,2015-07-11T20:12:00Z,27.8398,-97.0727,1.528,1111122 
TCOON,ioos:station:TCOON:009:1,2015-07-11T21:12:00Z,27.8398,-97.0727,1.475,1111122 
TCOON,ioos:station:TCOON:009:1,2015-07-11T22:12:00Z,27.8398,-97.0727,1.468,1111122 
TCOON,ioos:station:TCOON:009:1,2015-07-11T23:12:00Z,27.8398,-97.0727,1.443,1111122 
TCOON,ioos:station:TCOON:009:1,2015-07-12T00:12:00Z,27.8398,-97.0727,1.423,1111122 
TCOON,ioos:station:TCOON:009:1,2015-07-12T01:12:00Z,27.8398,-97.0727,1.424,1111122 
TCOON,ioos:station:TCOON:009:1,2015-07-12T02:12:00Z,27.8398,-97.0727,1.511,1111122 
TCOON,ioos:station:TCOON:009:1,2015-07-12T03:12:00Z,27.8398,-97.0727,1.589,1111122 
TCOON,ioos:station:TCOON:009:1,2015-07-12T04:12:00Z,27.8398,-97.0727,1.625,1111122 
TCOON,ioos:station:TCOON:009:1,2015-07-12T05:12:00Z,27.8398,-97.0727,1.702,1111122 
TCOON,ioos:station:TCOON:009:1,2015-07-12T06:24:00Z,27.8398,-97.0727,1.714,1111122 
TCOON,ioos:station:TCOON:009:1,2015-07-12T07:18:00Z,27.8398,-97.0727,1.683,1111122 
TCOON,ioos:station:TCOON:009:1,2015-07-12T08:18:00Z,27.8398,-97.0727,1.729,1111122 
TCOON,ioos:station:TCOON:009:1,2015-07-12T09:18:00Z,27.8398,-97.0727,1.74,1111122 
TCOON,ioos:station:TCOON:009:1,2015-07-12T10:12:00Z,27.8398,-97.0727,1.755,1111122 
TCOON,ioos:station:TCOON:009:1,2015-07-12T11:18:00Z,27.8398,-97.0727,1.747,1111122 
TCOON,ioos:station:TCOON:009:1,2015-07-12T12:18:00Z,27.8398,-97.0727,1.753,1111122 
TCOON,ioos:station:TCOON:009:1,2015-07-12T13:12:00Z,27.8398,-97.0727,1.731,1111122 
TCOON,ioos:station:TCOON:009:1,2015-07-12T14:12:00Z,27.8398,-97.0727,1.723,1111122 
TCOON,ioos:station:TCOON:009:1,2015-07-12T15:12:00Z,27.8398,-97.0727,1.735,1111122 
TCOON,ioos:station:TCOON:009:1,2015-07-12T16:12:00Z,27.8398,-97.0727,1.742,1111122 
TCOON,ioos:station:TCOON:009:1,2015-07-12T17:12:00Z,27.8398,-97.0727,1.712,1111122 
TCOON,ioos:station:TCOON:009:1,2015-07-12T18:12:00Z,27.8398,-97.0727,1.669,1111122 
TCOON,ioos:station:TCOON:009:1,2015-07-12T19:12:00Z,27.8398,-97.0727,1.627,1111122 
TCOON,ioos:station:TCOON:009:1,2015-07-12T20:12:00Z,27.8398,-97.0727,1.523,1111122 
TCOON,ioos:station:TCOON:009:1,2015-07-12T21:12:00Z,27.8398,-97.0727,1.477,1111122 
TCOON,ioos:station:TCOON:009:1,2015-07-12T22:12:00Z,27.8398,-97.0727,1.439,1111122 
TCOON,ioos:station:TCOON:009:1,2015-07-12T23:12:00Z,27.8398,-97.0727,1.407,1111122 
TCOON,ioos:station:TCOON:009:1,2015-07-13T00:12:00Z,27.8398,-97.0727,1.37,1111122 
TCOON,ioos:station:TCOON:009:1,2015-07-13T01:12:00Z,27.8398,-97.0727,1.362,1111122 
TCOON,ioos:station:TCOON:009:1,2015-07-13T02:12:00Z,27.8398,-97.0727,1.405,1111122 
TCOON,ioos:station:TCOON:009:1,2015-07-13T03:12:00Z,27.8398,-97.0727,1.503,1111122 
TCOON,ioos:station:TCOON:009:1,2015-07-13T04:12:00Z,27.8398,-97.0727,1.559,1111122 
TCOON,ioos:station:TCOON:009:1,2015-07-13T05:12:00Z,27.8398,-97.0727,1.61,1111122 
TCOON,ioos:station:TCOON:009:1,2015-07-13T06:12:00Z,27.8398,-97.0727,1.652,1111122 
TCOON,ioos:station:TCOON:009:1,2015-07-13T07:18:00Z,27.8398,-97.0727,1.686,1111122 
TCOON,ioos:station:TCOON:009:1,2015-07-13T14:36:00Z,27.8398,-97.0727,1.734,1111122 
TCOON,ioos:station:TCOON:009:1,2015-07-13T15:18:00Z,27.8398,-97.0727,1.726,1111122 
TCOON,ioos:station:TCOON:009:1,2015-07-13T16:18:00Z,27.8398,-97.0727,1.704,1111122 
TCOON,ioos:station:TCOON:009:1,2015-07-13T17:18:00Z,27.8398,-97.0727,1.704,1111122 
TCOON,ioos:station:TCOON:009:1,2015-07-13T18:18:00Z,27.8398,-97.0727,1.69,1111122 
TCOON,ioos:station:TCOON:009:1,2015-07-13T19:12:00Z,27.8398,-97.0727,1.659,1111122 
TCOON,ioos:station:TCOON:009:1,2015-07-13T20:12:00Z,27.8398,-97.0727,1.592,1111122 
TCOON,ioos:station:TCOON:009:1,2015-07-13T21:12:00Z,27.8398,-97.0727,1.524,1111122 
TCOON,ioos:station:TCOON:009:1,2015-07-13T22:24:00Z,27.8398,-97.0727,1.462,1111122 